Theta_e
348 347 347 347 347 347 346 346 346 346 346 346 345 344 344 344 345 345 345 345 344 344 344 344 343 344 345 345 344 342 342 344 346 347 346 346 345 345 346 346 342 339 339 342 342 341 341 341 343 343 342 341 340 339 336 334 333 333 333 333 333 334 334 334 334 333 333 334 335 336 336 337 337 337 335 334 333 332 333 335 336 337 337 337 337
348 348 347 348 348 348 346 345 346 347 347 346 345 345 344 344 345 345 345 344 343 343 343 343 342 343 343 344 344 343 341 342 346 347 346 346 346 346 347 347 344 340 339 340 341 342 341 341 341 341 342 342 341 340 340 338 336 335 334 334 334 334 335 334 334 334 334 334 334 335 335 336 336 336 335 334 333 333 332 333 334 335 336 337 337
348 348 348 349 348 348 347 346 346 347 347 347 347 346 344 343 344 344 344 342 341 341 341 341 339 339 339 341 343 343 341 342 344 347 347 347 346 346 347 347 345 342 339 339 340 341 342 341 341 340 340 342 342 341 341 340 339 338 336 335 335 334 335 334 334 334 334 334 334 334 334 334 334 334 334 334 333 333 333 333 333 333 334 335 335
347 348 349 349 348 347 347 346 347 347 347 347 348 347 344 343 343 344 343 341 340 340 340 340 338 337 336 337 341 342 341 341 343 343 343 345 346 346 347 347 346 344 342 340 338 339 341 341 341 341 340 340 341 341 341 341 341 340 339 338 337 336 336 335 334 334 334 335 335 334 334 334 334 333 333 333 333 333 333 333 333 333 333 333 333
345 346 348 348 347 347 346 346 347 347 347 347 347 345 342 342 342 342 342 340 340 339 338 338 335 335 334 334 336 337 338 339 341 341 339 343 346 346 346 347 347 346 345 341 338 339 340 341 340 340 339 339 340 341 341 341 341 341 340 339 339 338 338 337 336 335 335 335 335 335 334 334 334 334 333 333 332 332 332 332 333 333 333 333 332
343 345 347 347 346 346 345 346 348 348 347 346 345 344 341 341 339 340 342 340 339 339 337 335 333 335 336 334 334 334 336 336 338 340 340 341 345 346 346 347 346 346 345 342 339 339 339 340 341 339 338 338 338 340 341 340 341 341 340 340 340 339 339 339 338 337 336 336 335 335 335 335 335 334 334 334 333 332 331 331 332 333 333 333 333
344 345 346 346 347 345 343 346 348 348 346 344 344 343 340 339 338 338 339 337 339 339 334 333 333 336 338 337 337 335 335 335 336 340 342 341 343 345 346 346 346 346 345 343 341 339 338 340 341 340 339 339 338 338 339 340 340 341 341 340 340 340 340 340 340 339 338 337 336 336 336 335 336 336 336 336 334 333 333 332 331 331 332 333 334
346 346 346 346 346 344 343 346 347 347 345 343 342 340 339 338 335 332 332 334 338 338 333 332 335 338 339 339 340 337 335 334 334 339 342 343 343 343 345 346 345 345 345 344 342 340 340 340 341 341 340 340 340 339 338 339 338 339 340 340 340 340 341 341 341 340 339 338 338 337 337 336 336 336 337 337 336 336 336 335 333 332 332 331 332
347 346 346 346 345 343 344 346 347 347 345 341 338 339 339 337 333 329 329 332 334 335 333 332 336 340 340 340 340 339 339 335 334 339 341 343 344 341 344 345 344 344 344 343 342 342 341 340 341 342 341 340 340 340 339 339 339 339 338 339 340 341 342 341 341 341 340 340 339 339 338 338 337 337 337 337 336 337 337 337 336 336 335 334 333
347 346 346 346 343 343 346 346 347 347 341 337 337 340 340 337 336 332 325 324 324 329 334 334 337 340 340 340 339 340 341 337 337 340 341 342 341 340 344 345 344 344 344 343 343 343 342 340 340 341 341 341 340 339 339 339 339 339 339 338 340 341 342 341 341 341 341 341 340 340 339 339 338 338 337 337 337 337 337 337 337 338 337 337 336
347 346 346 345 342 343 347 347 347 345 338 337 337 339 338 337 340 333 324 323 322 327 334 335 337 338 338 339 338 337 337 337 339 340 340 340 339 340 343 344 343 344 343 342 342 342 342 341 340 340 340 341 340 339 339 339 339 340 340 340 341 341 341 342 342 342 341 340 340 340 339 339 339 339 338 337 337 337 336 336 337 338 338 338 338
349 348 347 345 343 344 347 347 347 343 338 338 336 335 336 339 340 329 325 332 330 332 334 334 335 336 338 338 335 334 333 335 338 337 338 339 340 342 343 342 342 342 341 341 342 341 341 340 340 340 340 339 338 339 339 338 338 339 340 341 341 341 341 341 341 341 341 340 340 339 338 339 340 339 339 338 337 338 337 337 337 337 338 338 338
351 350 347 345 344 346 346 345 345 342 339 337 333 334 336 338 335 324 328 337 335 334 334 335 338 338 338 338 336 337 336 336 337 337 339 340 341 342 341 340 339 338 337 337 338 339 338 339 340 339 337 335 336 338 338 338 338 339 339 340 341 341 341 341 341 341 341 341 341 340 340 339 340 340 339 338 338 338 338 339 338 337 337 337 337
352 351 348 346 345 346 346 344 343 342 339 336 333 332 330 328 324 322 332 338 334 334 333 334 339 338 338 339 338 338 339 340 340 339 340 341 340 340 338 338 337 336 333 332 334 334 333 335 337 335 332 331 333 336 337 337 337 337 337 338 339 340 340 340 340 340 341 341 341 341 341 340 341 341 340 339 339 338 338 339 340 339 339 338 337
353 352 349 347 346 345 345 344 343 341 338 335 332 327 321 318 319 324 333 335 331 332 334 333 333 335 338 340 339 339 340 340 340 340 340 340 339 338 338 337 335 333 332 333 333 330 328 328 329 329 328 328 330 333 334 335 336 335 335 335 335 336 338 339 339 339 339 339 340 340 340 340 340 341 340 340 339 339 339 339 339 340 340 340 339
353 351 349 347 347 345 345 344 343 341 337 336 331 322 317 317 320 326 334 334 330 332 335 333 329 330 334 337 339 339 340 339 339 339 339 339 338 337 337 334 332 330 330 332 330 327 326 324 323 323 323 324 326 329 331 333 333 330 328 327 326 328 329 330 331 332 332 333 334 336 337 338 339 339 340 340 340 339 339 338 338 338 339 340 341
353 350 348 347 347 346 345 344 344 341 338 336 327 319 319 321 324 329 333 333 332 334 335 331 328 329 333 337 339 340 340 338 337 338 338 338 336 334 332 330 329 329 328 329 327 326 324 322 321 320 319 319 320 322 325 326 324 320 318 318 318 318 319 319 319 319 320 322 323 325 328 330 332 335 337 339 340 340 340 340 339 339 339 340 340
352 350 347 347 348 347 345 345 344 340 339 336 323 316 320 324 327 330 333 333 332 336 336 332 329 328 331 336 339 339 339 338 337 336 336 336 335 332 331 329 329 328 327 327 328 327 324 322 322 321 321 320 318 317 318 318 317 316 317 318 317 318 317 317 317 317 317 317 317 317 318 319 322 324 328 332 335 337 339 339 340 340 339 340 340
353 350 346 347 349 347 345 344 343 340 341 336 321 316 320 323 326 329 334 336 334 335 336 334 331 328 328 332 337 339 339 338 337 336 336 335 334 332 331 330 328 328 328 328 329 328 326 325 325 324 324 323 323 320 318 319 320 319 319 319 318 319 319 319 319 319 319 318 318 317 317 316 316 316 317 320 323 326 330 333 335 337 338 339 340
353 350 346 346 347 347 344 343 343 341 341 334 319 316 319 322 325 328 333 337 337 335 333 333 333 331 329 328 333 339 339 337 338 337 336 335 334 333 332 331 329 329 328 329 329 327 327 328 327 327 326 326 326 325 324 325 324 323 323 320 318 318 319 320 319 319 318 318 318 318 318 318 317 316 316 315 316 317 319 321 324 327 330 333 335
352 350 347 346 345 345 343 342 342 340 335 326 317 316 319 320 323 326 330 333 337 337 332 331 333 332 331 328 329 332 333 333 335 336 336 335 335 335 334 331 329 329 329 329 328 328 327 328 328 328 327 327 327 326 326 327 327 327 326 323 320 319 318 318 318 318 318 317 317 317 317 318 318 318 317 316 315 315 315 315 316 318 319 322 324
351 350 348 347 346 344 342 341 342 339 326 318 316 316 318 321 322 325 329 331 336 338 333 331 331 330 330 330 328 326 326 326 328 331 333 334 335 335 334 332 329 328 329 328 328 328 328 328 329 328 328 327 328 327 327 328 328 328 327 325 325 323 320 318 318 318 318 318 318 318 318 318 318 318 317 317 316 315 315 315 315 315 316 316 318
350 350 349 349 347 344 341 341 342 339 326 315 316 317 318 320 320 323 329 331 333 334 332 331 332 331 329 331 330 326 323 323 324 327 328 330 333 334 334 333 330 329 330 329 328 328 329 329 330 329 328 328 327 327 328 328 328 329 328 327 327 326 323 320 320 320 320 320 320 319 319 319 318 318 318 317 317 316 315 315 315 315 315 316 317
350 350 349 349 348 344 341 341 340 339 329 318 315 319 320 320 320 322 326 330 330 330 329 330 334 334 331 331 329 326 326 327 327 330 329 329 332 333 333 333 331 331 331 329 328 330 331 331 330 330 329 328 327 328 328 329 329 329 328 328 328 327 325 322 321 321 321 321 321 320 320 319 318 318 318 317 317 316 316 315 315 315 315 316 316
349 348 348 349 348 344 340 340 339 335 328 319 316 319 322 320 320 321 322 326 328 328 328 330 332 332 331 331 327 324 328 330 331 334 334 333 333 332 332 332 331 333 333 331 332 333 332 331 331 331 330 330 329 329 329 329 329 329 329 329 329 328 326 323 322 322 322 321 321 321 321 320 319 319 319 318 317 317 316 315 315 314 314 315 316
344 343 345 348 347 343 339 339 339 332 325 319 316 319 321 320 322 323 320 322 326 328 328 329 329 328 328 330 327 324 327 330 331 333 333 333 333 332 330 330 329 330 332 333 333 332 330 330 331 331 331 331 330 330 329 329 329 329 329 329 329 329 327 325 323 322 322 321 321 321 321 321 321 320 320 320 319 318 317 317 316 314 314 314 315
342 340 342 345 345 342 340 339 339 332 322 317 316 318 320 319 322 324 321 320 323 327 328 328 328 327 327 328 328 328 329 331 332 331 330 330 329 329 328 328 328 328 329 330 330 329 329 329 330 330 331 331 330 330 329 329 330 329 330 330 330 328 327 326 326 324 323 322 321 321 320 321 322 322 321 321 321 320 320 319 318 316 315 314 314
342 341 341 343 343 342 340 339 338 334 324 317 316 318 319 319 320 322 321 319 320 323 327 328 327 328 328 328 329 330 330 330 331 331 330 329 327 327 326 326 328 328 328 328 327 327 328 328 329 330 331 331 331 331 330 330 330 330 330 330 328 328 327 327 327 326 325 324 323 323 321 321 321 322 322 323 322 321 320 319 319 318 317 316 315
343 342 342 342 341 341 340 339 338 336 329 320 316 317 318 318 319 320 320 318 318 319 324 327 328 328 329 328 328 331 330 329 329 329 330 329 328 327 327 326 327 328 328 328 327 328 328 328 328 329 330 330 330 330 331 331 331 331 330 328 327 327 328 328 328 327 326 325 324 323 323 322 322 323 324 325 324 323 322 320 320 319 319 317 315
343 343 343 342 342 341 340 340 338 337 334 324 317 317 318 318 319 319 319 319 318 317 319 324 328 328 329 328 327 328 328 328 327 327 328 328 328 328 327 328 328 328 328 328 329 329 329 328 328 328 328 328 329 330 331 331 331 331 330 329 328 328 328 328 328 328 327 326 324 323 323 323 324 325 326 326 326 325 324 323 322 320 319 318 317
344 344 344 343 343 342 340 340 339 338 336 326 317 316 317 318 319 319 318 319 318 317 318 321 326 328 329 328 327 325 326 326 326 326 326 327 327 327 328 328 328 328 329 330 330 329 329 329 328 328 328 328 328 328 329 329 329 330 330 331 331 331 330 329 329 328 328 327 325 323 323 323 324 325 326 326 326 326 325 323 323 322 320 319 318
345 345 344 343 342 342 341 340 340 339 337 328 319 316 317 317 318 318 319 318 317 317 318 320 324 327 328 328 326 324 324 326 326 326 326 326 326 327 327 327 327 328 329 330 330 328 327 328 327 327 328 328 327 327 327 326 326 328 329 330 330 330 330 330 329 328 328 328 327 325 324 324 324 325 326 326 326 326 325 325 324 323 322 321 320
344 344 344 343 342 342 342 341 340 340 338 333 323 317 316 317 317 318 318 318 317 317 318 320 322 325 326 326 324 322 323 324 324 324 325 325 325 325 325 325 325 326 328 329 329 327 325 326 325 325 326 327 326 326 326 325 325 326 327 327 327 328 329 329 329 328 328 329 329 327 325 324 324 325 325 325 326 326 326 326 325 325 324 323 322
343 343 342 342 342 342 343 342 341 340 340 338 329 319 316 316 317 317 317 318 318 318 318 319 321 323 325 325 323 321 322 323 323 323 323 322 323 323 323 324 324 324 326 328 329 328 325 324 325 326 326 326 325 325 325 325 325 326 326 327 327 327 327 328 328 328 328 329 329 328 327 325 324 325 325 325 325 325 326 326 326 325 324 323 323
342 342 342 342 342 343 343 342 342 341 340 341 335 325 317 316 317 317 318 318 318 318 319 319 320 322 323 323 322 321 322 324 324 324 323 322 323 323 324 324 324 325 327 330 331 331 329 327 327 327 327 327 327 326 326 325 325 326 326 326 326 326 326 326 326 327 327 328 328 328 327 326 325 325 326 326 326 325 325 325 326 325 325 324 323
342 342 341 342 342 343 343 343 343 342 341 342 340 332 324 318 316 317 317 318 319 319 319 319 320 321 321 321 321 321 323 326 327 326 324 323 323 323 323 324 325 327 329 332 334 334 334 332 329 328 330 330 330 329 329 328 328 328 327 326 327 326 326 326 325 325 326 327 327 327 327 326 325 325 326 326 326 325 325 325 325 326 326 325 324
342 342 341 342 343 343 344 343 343 343 342 341 341 338 332 322 317 317 317 318 319 319 318 319 319 319 320 320 320 322 326 328 328 327 325 324 323 323 324 326 328 330 331 332 333 334 335 334 331 331 331 331 332 332 331 330 330 330 329 327 327 326 326 326 326 326 326 326 326 326 326 325 324 324 324 325 324 323 323 323 324 325 325 325 324
342 342 342 342 342 343 344 345 344 344 342 341 340 341 337 328 319 316 317 317 319 320 319 318 318 318 319 320 320 323 326 327 327 327 326 324 324 325 326 328 330 332 333 333 334 335 335 335 333 333 332 332 333 333 332 332 332 331 330 328 327 327 327 327 327 326 326 326 326 326 325 325 325 324 324 323 322 322 322 322 323 323 323 324 324
342 341 342 341 341 343 345 346 346 345 343 342 341 341 340 335 325 318 316 317 318 320 319 318 318 318 319 321 320 321 324 326 327 327 327 327 328 327 327 329 331 333 334 333 333 334 334 333 333 332 331 332 332 332 332 333 334 333 331 330 328 326 326 327 327 326 326 326 326 326 326 326 326 325 324 323 322 321 321 321 322 322 322 322 322
341 341 340 341 342 345 347 347 347 346 345 344 343 343 342 340 332 321 316 317 319 321 320 318 318 318 319 321 320 319 322 325 327 327 329 330 330 329 328 330 333 334 334 334 333 333 333 333 332 332 332 332 331 331 331 332 333 332 330 330 330 327 325 326 326 327 327 327 327 327 327 327 326 326 326 324 322 322 321 320 321 321 320 320 320
342 341 341 341 343 345 347 348 348 347 346 344 344 344 343 343 339 328 318 317 319 321 322 320 319 318 319 320 320 320 321 323 327 329 330 331 332 332 332 333 334 334 335 335 335 334 334 333 333 333 333 333 332 331 331 331 332 331 329 330 329 328 326 327 327 328 328 328 328 328 327 327 326 326 326 324 323 321 321 321 321 321 321 321 321
342 342 343 344 345 345 346 348 348 347 347 345 344 345 345 345 343 334 321 316 319 321 321 320 319 319 319 319 320 321 322 324 326 327 328 331 335 335 335 335 336 335 335 335 334 334 334 334 334 334 334 333 333 332 332 332 332 332 331 330 329 328 328 328 328 329 329 329 329 329 328 327 327 326 325 324 322 321 321 321 321 321 322 322 321
343 344 346 346 347 347 348 348 348 348 347 345 345 347 348 347 345 339 328 319 318 320 320 320 320 319 319 320 319 320 324 326 325 326 329 334 336 336 336 336 336 336 335 335 335 335 334 334 334 334 334 334 333 333 333 333 334 334 333 331 330 329 329 329 329 329 330 330 329 329 328 327 327 325 324 322 321 321 321 322 322 322 322 322 322
344 345 347 348 348 349 350 350 350 349 348 347 348 349 349 348 346 345 338 324 317 320 321 320 321 320 319 319 319 321 324 326 327 331 334 335 336 336 336 336 336 335 335 334 334 334 334 335 335 334 334 334 334 334 334 334 334 334 333 332 331 331 330 330 330 330 330 330 330 329 328 327 326 324 323 322 321 322 322 322 322 321 321 321 321
346 348 348 349 350 350 351 351 350 350 350 349 350 351 350 348 347 347 344 332 319 318 320 319 320 321 320 320 321 322 322 326 332 335 334 334 337 337 337 336 335 333 332 331 329 330 331 332 333 334 334 334 334 334 334 334 334 334 333 332 331 331 331 330 330 330 330 329 329 328 328 327 325 323 322 322 322 322 322 322 321 320 320 320 320
349 350 350 350 350 351 351 351 351 351 351 351 352 352 351 351 349 347 345 337 324 319 319 318 319 322 322 321 322 322 323 330 335 335 332 334 338 337 337 335 333 330 329 327 326 326 326 326 330 334 335 334 334 334 333 333 334 333 332 331 331 330 329 329 329 329 328 328 328 327 327 325 324 323 323 323 323 322 321 320 320 319 320 320 320
351 351 350 351 351 351 352 352 352 353 353 353 354 354 352 353 351 346 344 340 330 321 318 317 319 322 324 324 324 325 328 334 336 333 332 334 336 336 336 333 330 327 324 323 324 324 323 325 329 334 335 334 333 333 332 331 332 331 330 330 330 329 328 328 328 327 327 327 327 326 326 325 324 324 324 323 322 321 321 320 320 319 320 321 320
353 353 353 352 352 352 353 354 354 354 355 355 355 354 354 354 350 346 344 342 336 327 320 317 319 323 326 327 328 329 333 338 339 335 333 333 332 332 331 328 327 326 323 322 323 323 323 326 330 333 333 332 331 330 328 328 329 329 329 329 328 327 327 328 327 327 327 326 326 326 325 325 324 323 323 322 321 321 321 320 320 320 320 320 320
354 354 354 354 354 355 355 355 355 356 356 357 356 356 356 355 352 348 346 344 340 333 324 317 319 325 331 332 332 332 334 337 336 333 330 328 327 326 326 325 324 324 323 322 323 324 327 329 332 332 332 331 330 328 327 327 327 327 327 327 326 325 326 327 327 327 326 326 325 325 324 324 323 322 322 321 321 321 321 321 320 320 320 320 319
353 353 354 355 356 357 357 357 357 357 358 358 358 357 357 356 354 352 349 346 342 337 328 320 321 329 334 335 335 335 336 334 329 325 323 323 323 325 326 325 323 323 323 323 324 328 330 331 332 333 332 330 329 328 327 327 327 326 326 326 325 325 326 326 326 326 326 325 325 324 323 323 322 321 321 321 320 320 320 320 319 319 318 317 315
353 353 355 357 358 358 359 359 359 359 359 359 359 358 357 356 354 352 350 346 342 339 334 326 323 325 329 333 336 336 336 333 325 321 321 322 324 326 326 324 323 323 323 326 329 331 330 331 332 332 331 330 329 328 327 327 327 326 325 325 325 325 326 326 326 325 324 324 324 323 322 321 321 320 319 318 318 318 318 318 317 316 314 312 311
Wind_Speed
7 6 5 4 2 1 1 1 1 3 3 1 0 2 3 3 4 5 5 4 3 1 1 2 3 2 1 2 2 4 5 3 2 1 1 3 4 4 4 4 3 3 3 3 4 5 5 6 7 8 9 10 10 9 9 10 10 11 11 10 10 10 10 10 10 10 10 10 9 9 9 9 8 7 6 6 5 6 7 8 7 6 6 5 5
7 6 5 3 1 1 2 2 2 3 4 2 1 3 3 4 5 5 4 2 1 2 3 3 2 0 1 3 3 2 6 5 2 1 1 3 5 5 4 4 3 3 4 4 4 4 5 6 7 8 8 9 10 11 11 11 11 11 11 11 11 11 11 11 11 11 11 10 10 9 9 9 9 8 8 7 6 6 7 7 8 7 6 6 5
7 6 4 3 2 1 2 3 3 4 4 3 3 4 5 4 4 2 0 2 5 7 6 4 3 2 0 3 4 2 5 5 3 1 1 2 4 5 6 5 4 4 5 5 5 5 5 6 6 6 7 8 9 11 12 12 12 12 12 12 12 12 12 12 12 12 12 11 11 10 10 10 10 10 9 8 8 7 7 7 8 8 8 7 7
8 6 4 3 3 2 4 4 4 4 4 4 5 5 5 3 2 1 3 5 7 9 7 4 4 2 2 1 4 3 2 4 4 4 3 1 3 5 6 6 6 5 5 5 6 6 6 6 5 5 5 6 7 9 11 12 13 13 14 13 13 13 13 13 12 12 12 12 12 12 11 11 11 10 10 10 9 9 9 9 9 9 9 9 8
9 6 4 4 4 4 5 5 5 5 4 5 4 5 4 4 3 4 5 6 7 9 7 4 3 1 2 1 3 3 1 2 3 4 6 3 2 5 6 6 7 6 5 5 6 7 7 6 5 5 4 4 5 7 8 10 12 13 14 13 13 13 13 13 13 13 13 13 13 13 13 12 12 12 11 11 11 11 11 10 10 10 10 10 9
10 7 6 6 6 6 6 6 6 5 5 5 5 5 5 5 4 5 6 6 6 6 6 4 2 2 2 3 2 3 3 1 1 2 4 4 2 4 6 6 6 6 6 6 7 6 6 6 6 6 6 5 6 6 7 8 10 12 12 13 14 14 14 14 14 14 14 14 13 14 13 13 13 12 12 12 11 11 11 11 12 11 11 11 11
8 7 8 9 8 8 6 6 6 5 5 4 5 6 6 6 6 6 6 6 7 6 5 4 3 3 3 4 2 3 4 4 2 2 1 3 2 3 4 5 6 6 6 7 7 7 6 6 6 6 6 6 6 6 7 7 8 10 10 11 12 13 14 15 15 15 15 14 14 14 14 14 14 13 13 13 12 12 12 12 12 12 12 12 12
8 8 10 10 10 8 6 6 6 5 5 4 6 7 7 7 5 4 5 7 8 7 7 6 4 4 3 3 2 2 3 4 4 3 3 2 2 3 3 4 4 4 6 7 8 8 7 6 6 6 5 6 7 7 7 7 7 8 9 10 11 12 13 14 15 15 16 15 15 15 14 15 14 14 14 13 14 14 13 12 12 12 12 12 12
8 10 10 11 11 9 7 6 6 5 5 5 7 7 7 6 5 3 1 6 9 9 9 7 6 5 3 3 4 3 1 3 5 5 4 3 2 1 2 2 2 3 5 6 7 7 6 6 5 5 5 6 7 8 8 8 8 8 8 9 10 11 12 13 14 15 15 16 16 15 15 16 16 15 15 15 15 15 14 14 13 13 13 12 12
9 10 11 12 11 9 8 6 6 6 6 7 8 7 7 5 5 5 2 4 8 11 9 7 6 5 5 5 5 4 3 5 6 5 4 5 1 2 1 3 3 4 5 5 7 7 5 5 5 4 4 5 5 6 7 8 9 9 9 9 9 10 11 12 13 13 14 15 15 16 16 16 17 17 17 16 16 16 15 15 15 14 14 14 13
9 10 11 12 11 9 9 7 6 6 8 9 8 8 7 6 5 7 4 2 6 9 7 5 5 6 7 6 4 3 3 6 8 6 4 4 3 3 1 5 4 5 5 5 6 6 5 4 3 2 2 2 2 4 6 7 8 9 9 9 9 9 10 10 11 12 13 15 15 15 15 15 16 17 17 18 17 17 16 16 16 15 16 15 15
11 10 11 11 11 10 9 8 7 8 10 10 8 7 7 7 8 7 3 5 6 6 5 5 5 6 7 5 2 3 3 7 9 9 7 3 2 2 5 6 5 4 4 4 4 3 3 2 2 2 3 2 2 3 4 4 6 7 8 8 9 9 9 9 10 10 12 13 14 15 15 15 15 15 16 17 17 17 17 17 17 16 16 17 17
12 11 11 11 11 10 9 8 8 10 10 9 7 7 7 9 10 7 7 8 6 6 7 7 6 6 7 6 7 7 8 10 9 9 7 4 5 7 7 5 4 3 2 2 2 1 2 1 2 3 3 2 1 2 3 3 4 5 5 6 7 7 8 9 9 10 10 11 12 13 14 14 15 15 15 15 16 17 17 18 17 17 17 17 17
12 11 11 12 12 10 10 9 10 10 10 8 7 7 8 10 9 7 10 9 7 8 8 8 6 5 6 7 8 8 10 10 9 10 10 8 8 7 5 4 3 3 3 2 1 0 1 3 4 3 3 2 2 1 2 3 3 3 4 4 4 5 6 8 9 9 8 8 10 12 13 14 14 14 14 15 15 16 16 17 17 17 17 18 18
13 12 12 13 12 10 10 11 10 10 9 7 7 7 8 8 8 9 11 10 8 8 7 5 4 4 6 6 6 7 9 7 7 10 11 11 9 5 3 2 1 2 2 1 2 2 1 3 4 4 3 3 3 3 2 3 3 3 3 2 3 3 4 5 6 7 7 7 8 9 11 12 13 14 15 15 15 15 15 15 15 16 17 17 18
14 14 14 14 12 11 11 11 10 9 8 7 7 8 6 5 8 11 12 11 10 9 6 4 4 5 7 7 5 7 9 7 7 11 12 11 8 5 3 1 1 1 2 2 2 2 2 4 5 5 4 4 4 4 4 3 2 2 2 2 2 2 2 3 3 4 5 6 7 8 9 10 11 13 14 15 15 15 15 16 16 16 16 16 17
14 15 15 14 13 13 13 12 10 9 8 8 8 8 5 6 8 12 13 11 10 10 6 5 5 5 8 9 7 8 10 9 10 12 13 11 7 4 2 0 1 1 1 1 3 4 4 4 5 6 5 4 4 4 4 3 3 4 4 3 3 2 1 0 1 1 2 3 4 5 6 8 9 10 11 12 13 14 15 15 16 16 16 16 16
16 16 16 15 15 15 14 12 10 9 9 9 9 8 7 8 10 13 13 10 9 10 7 6 6 6 8 10 9 9 12 13 12 13 13 10 6 4 2 1 1 1 1 2 4 5 4 4 3 3 4 4 4 4 5 4 3 3 3 2 1 1 0 0 1 1 2 2 2 3 3 5 6 7 8 10 11 13 14 14 15 16 16 16 17
17 17 17 16 16 16 14 11 10 11 10 10 9 8 9 11 12 13 12 10 9 9 8 6 7 7 8 10 10 10 13 14 11 13 13 10 7 6 3 2 2 2 2 1 3 3 3 4 4 3 2 2 3 4 4 3 2 1 2 3 3 3 3 3 2 2 3 3 3 3 3 4 4 5 6 7 9 10 12 13 14 15 16 16 17
18 18 17 16 17 16 14 12 11 11 10 10 10 10 11 13 13 14 13 12 11 9 9 8 7 7 7 9 10 11 14 14 12 12 13 12 10 8 5 5 6 4 2 1 1 1 1 2 4 5 5 3 2 2 1 3 4 4 6 7 6 5 5 4 4 4 4 4 4 5 5 5 5 5 6 6 7 8 9 10 12 13 15 16 17
19 18 17 16 17 16 14 12 11 10 9 11 12 12 12 13 12 13 14 15 14 12 11 10 9 7 6 7 9 11 12 13 12 12 12 12 12 10 8 9 9 7 4 3 2 2 1 2 5 6 7 6 6 5 5 5 7 7 8 8 8 6 5 5 4 4 5 5 5 6 6 5 5 6 6 7 7 7 8 9 10 11 12 14 15
20 19 18 17 17 16 14 13 11 9 9 12 14 13 13 12 11 12 14 15 16 15 13 11 10 8 5 5 7 9 11 13 13 13 13 12 10 9 9 11 11 9 6 6 5 3 2 3 6 8 8 9 9 8 8 8 8 9 9 9 10 8 6 6 6 5 5 5 5 6 6 6 6 6 7 7 7 8 8 9 9 10 11 12 13
21 20 19 18 17 17 15 13 11 10 10 12 14 13 12 12 12 13 14 14 16 17 15 14 12 10 7 6 6 8 11 12 13 13 14 12 9 9 9 10 11 8 6 8 8 5 4 5 7 9 10 10 10 9 10 10 10 10 11 11 12 11 9 7 7 7 7 7 6 6 6 7 7 8 8 8 8 8 9 9 9 10 10 11 12
23 22 21 19 18 18 16 14 12 11 11 13 14 13 13 13 14 14 14 15 16 17 17 16 14 13 11 9 7 10 12 12 12 12 12 12 10 10 9 9 11 9 7 10 10 7 7 7 8 9 10 11 11 10 11 11 11 12 12 13 14 13 11 9 8 8 8 8 8 7 7 8 8 9 9 9 9 9 10 10 10 11 11 11 12
26 25 23 21 20 19 17 13 11 10 11 14 15 14 14 14 14 14 15 16 17 17 17 16 15 14 13 11 10 12 13 13 12 12 11 11 10 10 10 10 10 10 9 11 10 9 8 8 8 9 10 11 12 12 13 13 12 12 13 13 14 14 13 11 10 9 9 9 9 8 9 9 9 9 9 9 10 10 10 11 11 12 12 12 12
27 25 24 23 21 20 17 14 11 10 12 15 16 15 15 14 13 13 14 17 18 17 16 16 16 15 14 13 13 13 13 13 13 13 12 12 11 11 11 11 12 12 13 13 13 12 10 9 9 10 10 11 13 13 14 13 13 13 13 14 15 16 15 13 11 11 11 11 10 10 10 10 10 9 10 10 11 11 12 12 12 12 13 13 13
27 26 25 24 23 21 18 16 13 11 13 16 17 17 17 15 13 13 14 16 18 18 17 16 17 16 15 15 16 15 13 12 12 13 12 12 12 12 11 10 10 12 13 14 14 13 11 10 10 10 10 10 11 12 13 12 12 13 14 15 17 16 15 13 13 13 12 11 11 11 12 12 12 11 11 12 13 14 14 14 14 13 13 13 13
28 27 26 25 25 23 20 18 15 13 14 17 19 18 17 15 14 14 14 15 17 17 17 18 18 17 16 16 16 15 14 12 12 12 12 11 12 12 11 10 9 10 11 12 13 12 11 10 10 10 10 10 9 9 10 10 12 13 15 16 17 15 13 13 13 12 11 11 11 12 13 14 15 14 14 14 15 15 15 16 16 16 15 14 14
30 28 27 27 26 24 22 20 16 15 16 19 21 20 18 16 14 14 13 14 15 16 18 19 19 18 17 17 17 16 14 13 13 13 12 12 11 11 11 10 10 10 11 12 12 11 10 10 9 10 10 10 10 9 9 10 12 14 16 17 16 14 14 14 13 11 10 10 11 13 14 14 14 14 13 14 14 14 15 15 16 16 17 17 16
31 30 29 29 27 26 25 22 18 16 18 20 22 22 20 17 16 14 14 14 15 15 17 20 20 19 18 18 18 17 16 15 15 14 13 12 12 11 11 11 11 11 12 12 13 11 9 9 9 10 10 10 11 11 11 13 14 16 17 17 16 15 15 15 13 11 11 12 12 13 13 13 13 12 12 13 13 13 14 14 15 16 17 17 17
33 32 31 31 29 28 26 24 21 19 19 21 23 23 21 19 18 17 16 16 17 17 17 20 21 21 19 19 18 18 18 18 17 16 14 13 13 13 12 12 12 12 12 13 14 12 9 8 8 9 10 11 12 13 14 16 17 17 17 17 17 17 17 16 15 14 14 13 13 13 12 11 11 11 11 12 13 14 14 14 15 16 16 16 17
34 34 33 32 31 30 28 26 23 21 20 22 23 24 23 22 20 19 19 18 19 18 18 20 22 22 21 20 19 18 18 19 18 16 15 14 14 13 13 13 13 13 13 13 15 13 9 9 10 10 10 12 13 14 15 16 16 16 17 18 19 19 19 18 17 17 16 15 15 14 12 11 10 10 11 11 12 13 14 15 15 16 15 15 15
36 35 34 33 32 31 29 27 25 22 22 22 23 24 24 24 22 22 21 20 20 20 20 21 23 23 23 21 20 18 18 18 17 16 15 14 14 14 14 14 14 13 13 14 15 14 11 10 11 11 10 11 12 12 13 14 14 14 16 16 17 18 19 20 20 19 19 18 17 16 15 14 13 12 12 13 13 13 14 15 16 16 16 15 15
38 36 35 35 34 33 31 29 27 25 24 24 24 24 25 25 24 24 23 22 22 22 22 22 24 24 23 22 21 19 18 18 16 16 15 14 14 14 13 13 12 12 12 13 15 16 14 10 11 12 11 12 13 12 12 13 13 13 14 14 14 15 17 19 20 21 20 20 19 18 18 17 16 15 15 16 16 16 16 17 17 17 17 17 17
39 38 37 36 35 34 33 32 29 27 26 26 25 25 25 25 25 25 25 24 23 24 23 23 23 24 23 22 21 20 20 19 17 15 15 14 14 14 13 12 12 12 12 13 14 16 17 15 14 14 14 14 14 13 13 14 14 14 14 14 14 15 16 18 19 20 20 20 20 20 20 19 18 18 17 18 18 19 19 19 19 19 18 18 19
40 39 38 37 36 36 35 34 32 30 29 28 28 27 25 25 26 26 26 25 24 24 24 23 23 24 23 22 21 20 20 19 17 15 15 15 15 14 13 12 13 13 13 14 15 17 19 19 18 17 17 16 17 16 15 15 14 14 15 15 15 16 16 16 17 18 17 18 19 20 20 20 19 19 19 19 20 20 21 21 21 22 22 21 20
41 40 40 39 38 38 37 36 34 32 31 30 30 28 26 25 26 26 26 25 24 24 24 23 23 23 24 23 21 20 21 20 18 17 16 16 15 15 14 13 13 14 14 15 16 17 19 21 20 19 18 19 19 18 17 16 16 16 16 16 16 16 17 17 17 16 15 16 17 18 20 20 20 20 19 20 20 20 20 20 21 22 22 22 21
42 41 41 40 40 39 38 37 36 34 33 33 32 30 28 26 27 27 27 26 25 24 24 24 24 23 24 24 22 22 22 21 19 18 17 17 16 15 15 14 13 14 15 15 16 17 19 21 21 21 21 21 21 21 19 19 20 20 20 19 19 19 19 19 18 17 17 17 18 18 20 20 20 20 19 19 20 20 20 20 20 20 21 21 21
43 42 42 41 40 40 39 38 37 36 35 35 34 33 31 28 27 28 28 26 24 23 24 25 24 24 24 23 22 23 24 23 20 19 18 17 16 16 15 14 13 14 14 14 15 17 19 21 22 23 23 22 23 23 23 22 23 24 24 24 23 22 21 21 21 21 20 20 20 20 21 21 21 21 21 21 21 21 22 21 21 22 22 23 24
43 43 42 41 41 40 40 39 39 38 37 37 37 36 34 32 29 28 29 27 24 23 23 24 25 25 24 24 23 22 23 23 21 19 18 17 16 15 14 13 13 13 14 15 16 17 18 21 23 24 24 25 25 25 25 26 27 27 26 26 26 26 25 24 24 23 23 23 23 23 23 23 24 24 24 24 23 23 23 23 23 24 25 26 27
44 43 42 42 41 41 41 40 40 40 40 40 40 38 37 34 31 28 28 27 24 22 23 24 26 26 25 25 24 23 22 23 22 20 18 16 14 14 12 11 12 13 15 16 18 18 19 21 23 24 25 27 27 27 27 28 28 28 27 27 28 28 27 27 27 26 25 25 25 25 25 25 25 26 27 27 25 24 24 24 25 26 28 28 29
44 44 43 43 43 42 42 42 42 42 42 42 42 40 38 35 32 28 28 28 26 24 24 24 25 27 26 26 26 24 23 23 22 20 17 14 13 13 12 12 14 15 16 18 19 19 19 21 23 24 26 29 29 28 28 28 29 29 29 28 29 29 28 29 29 28 27 26 26 26 26 26 27 28 28 28 27 25 24 26 27 28 29 28 27
45 45 45 44 44 43 43 43 43 44 44 43 43 41 39 36 31 29 30 31 29 27 26 25 25 26 27 27 26 25 24 23 21 18 16 15 14 14 14 15 16 17 18 19 19 19 20 21 23 24 26 29 29 28 29 30 30 30 30 30 30 30 29 30 31 31 29 28 28 28 28 28 29 29 28 27 26 25 26 27 28 27 25 23 22
47 46 46 46 45 44 44 44 44 45 45 44 43 42 40 37 32 30 32 33 30 29 27 26 26 28 28 28 27 26 25 23 21 19 18 17 16 16 17 17 18 17 18 18 19 19 20 22 23 25 27 29 29 29 31 31 31 31 30 30 29 29 29 30 31 32 30 29 29 30 30 28 27 28 28 26 26 26 26 25 25 23 22 22 21
47 47 46 46 46 45 45 45 45 45 45 44 43 42 42 40 34 31 32 32 31 30 29 28 29 30 30 29 28 27 24 22 22 21 19 18 17 18 18 18 18 17 17 17 17 17 19 21 23 26 27 28 29 30 31 31 31 31 29 27 26 26 27 28 29 28 27 26 27 29 29 27 25 27 29 27 26 25 23 22 22 22 22 22 22
47 47 47 47 46 46 46 46 46 45 45 44 43 42 43 42 36 31 30 32 33 31 29 30 31 30 30 29 28 26 24 22 22 21 20 19 19 20 19 19 19 17 15 17 17 17 18 20 23 26 27 28 29 30 30 30 30 30 28 25 24 24 26 26 26 25 24 23 24 26 29 27 25 27 29 28 26 24 22 22 22 21 21 21 21
48 48 48 47 47 47 47 46 45 45 44 43 42 41 41 42 39 33 28 29 33 33 30 31 32 30 29 28 27 26 24 23 22 22 22 21 21 21 21 21 20 18 17 18 19 20 22 22 23 26 27 28 28 29 28 27 27 26 25 24 24 25 26 26 25 24 23 21 21 25 29 28 26 27 29 26 24 23 22 23 23 22 21 21 22
49 48 48 47 47 47 46 45 45 44 43 42 41 40 38 38 39 36 29 26 30 33 33 32 30 29 28 27 27 26 25 24 24 24 23 22 21 22 22 21 20 20 21 20 21 23 25 25 24 26 28 28 28 26 24 23 23 22 23 24 24 24 25 26 26 25 23 21 21 24 29 29 25 25 26 24 23 24 25 25 25 24 24 24 24
49 49 49 48 47 46 45 45 44 43 42 42 41 39 36 34 34 33 31 29 29 31 32 31 29 28 28 27 26 26 26 26 26 25 24 22 21 22 23 23 22 23 23 23 24 25 25 25 26 27 27 27 26 24 23 22 22 22 23 24 24 23 23 25 26 26 24 23 22 24 27 26 23 22 24 24 25 26 27 27 27 27 27 28 29
49 48 48 47 46 45 44 44 42 41 41 41 40 38 35 30 28 27 29 31 31 30 29 30 29 28 28 27 26 27 28 27 27 26 25 23 22 22 23 24 24 25 25 25 24 24 25 26 26 26 26 25 24 23 22 22 22 22 23 24 23 22 23 24 25 25 25 24 22 21 23 24 23 23 25 27 28 29 29 30 30 30 31 33 34
47 46 46 46 45 44 43 42 41 40 41 40 39 37 32 27 25 25 28 31 31 29 28 29 30 29 28 27 27 28 28 28 27 25 25 24 22 22 23 25 26 27 26 24 24 25 25 26 26 27 27 25 23 22 23 23 22 22 22 22 21 21 22 23 24 23 24 24 22 20 22 25 25 25 26 28 31 33 33 33 33 34 35 34 32
Wind_Direction
168 176 173 159 149 115 36 26 350 301 283 284 262 264 270 281 289 290 292 300 316 346 55 122 129 105 115 136 93 37 18 353 304 285 173 183 174 149 134 114 104 116 134 161 188 200 205 209 208 210 213 212 214 215 209 205 204 208 211 212 213 212 212 213 212 213 212 213 216 218 222 221 219 220 223 226 227 225 218 219 225 226 230 235 237
181 188 177 159 159 352 347 321 294 280 278 296 267 259 275 273 275 289 295 312 75 120 116 115 105 5 225 169 158 66 29 18 336 280 204 179 167 155 147 137 130 127 142 168 189 197 198 203 208 212 215 215 217 220 221 218 214 214 216 217 221 218 217 218 217 217 217 217 219 221 225 226 225 225 228 230 231 234 231 229 233 235 237 238 241
196 203 192 179 211 292 304 290 273 266 277 290 279 277 289 288 281 293 286 123 132 138 131 126 119 100 160 149 152 104 37 28 31 52 166 178 164 153 150 148 145 139 145 170 193 201 204 204 206 217 224 223 222 225 225 225 222 220 219 220 224 226 226 225 224 224 222 221 221 222 225 227 228 229 232 233 233 235 235 234 237 240 244 246 248
211 214 209 226 244 257 278 282 271 264 273 279 279 279 275 269 259 185 158 147 149 156 153 157 150 109 351 107 144 136 55 42 54 53 43 109 163 153 154 155 149 150 156 175 193 200 209 209 197 205 227 235 232 234 234 232 230 227 224 222 222 226 229 231 233 233 230 228 226 226 227 228 231 233 236 238 239 239 237 237 238 240 243 246 250
222 221 223 248 257 259 270 267 262 263 263 265 265 262 251 237 212 187 183 171 168 175 181 194 172 175 321 61 148 175 144 70 70 49 34 52 150 154 156 160 154 155 165 178 191 198 208 208 188 185 205 226 228 232 236 237 237 235 233 230 227 227 229 232 234 236 236 236 235 234 232 231 233 234 236 240 243 243 242 241 241 243 245 247 248
225 226 237 256 260 260 261 248 250 254 247 252 252 246 239 233 215 198 197 193 192 191 193 201 174 166 147 106 124 187 189 171 89 68 33 36 108 157 156 160 165 165 168 172 183 191 203 210 200 194 200 209 216 225 231 232 233 236 236 235 233 231 230 232 232 234 235 237 240 241 239 236 235 236 236 239 244 246 247 246 245 246 247 248 250
224 231 244 255 258 256 248 239 244 243 240 242 237 236 238 238 224 207 212 216 207 202 201 195 189 189 153 115 111 172 191 206 199 159 74 35 82 152 160 168 176 175 174 172 174 180 191 210 217 216 213 209 212 225 229 227 228 231 232 233 234 234 234 234 234 234 234 234 237 241 244 243 241 241 240 239 241 244 247 249 249 249 250 251 253
221 230 242 247 251 250 241 241 242 236 238 233 225 230 239 245 247 232 214 213 210 212 214 195 183 203 171 124 143 171 183 209 222 189 145 103 106 142 172 187 185 171 175 175 176 184 188 202 219 224 228 219 213 222 227 227 233 234 232 232 233 234 235 236 236 236 235 235 235 236 241 244 244 246 245 244 243 243 244 246 249 249 251 253 255
219 227 235 240 244 243 237 236 237 238 231 222 222 228 241 256 288 324 189 197 209 215 215 194 183 216 215 151 151 167 184 219 219 187 167 172 131 108 167 179 170 154 165 170 178 192 190 196 210 213 228 226 215 220 223 224 231 235 233 233 231 231 234 238 238 236 236 237 238 238 238 239 241 243 245 246 247 248 248 247 249 249 249 251 252
216 222 227 234 239 238 234 228 227 233 220 216 225 233 246 262 294 327 330 214 216 216 217 204 197 225 229 198 176 191 236 230 204 172 176 196 214 326 141 130 133 138 143 156 173 186 186 189 192 192 221 230 223 221 221 224 231 236 236 234 230 229 232 237 238 237 237 239 241 242 242 241 240 241 243 244 245 248 250 251 252 253 254 253 252
213 219 223 232 238 234 230 226 221 219 217 222 233 246 257 257 275 302 303 212 203 210 217 214 214 225 225 226 214 209 236 218 204 191 190 214 267 291 139 118 119 127 129 145 164 173 174 182 173 156 188 217 220 210 210 219 229 236 239 237 234 231 232 235 237 239 241 241 241 242 243 244 245 245 244 243 243 245 248 251 253 256 258 258 257
216 220 227 232 236 233 227 226 221 217 227 235 243 255 258 250 269 285 225 165 172 184 182 182 194 203 208 208 148 126 150 181 198 203 202 222 247 176 137 124 118 114 118 139 160 173 173 167 146 150 163 174 196 196 196 209 224 234 237 239 239 237 237 236 237 240 243 243 242 242 243 243 246 248 248 246 246 247 248 250 251 254 257 261 262
222 225 230 231 231 231 228 228 225 224 233 242 248 255 251 250 265 259 182 169 182 179 168 162 161 172 180 152 115 119 134 141 154 167 169 170 154 145 139 126 106 76 54 89 139 171 181 181 177 185 193 193 188 169 177 192 208 222 230 236 237 238 241 242 242 240 239 240 242 245 244 244 245 247 249 249 249 250 251 252 251 250 252 256 260
228 230 231 231 229 227 228 232 230 229 235 241 250 252 249 251 252 221 184 184 195 184 172 165 162 171 170 146 124 130 140 138 145 152 150 150 151 148 138 117 76 34 23 34 52 88 182 202 205 211 223 224 203 169 170 181 187 200 212 226 231 236 241 244 249 249 247 245 246 248 248 249 249 248 250 252 252 252 252 254 254 253 253 253 255
230 233 233 233 232 227 229 234 232 233 239 246 252 250 250 243 221 195 186 191 190 172 162 168 184 192 179 161 137 144 148 148 167 164 153 155 159 159 148 131 53 12 349 302 331 3 80 170 188 197 209 214 215 209 192 177 174 179 191 216 233 241 244 247 256 262 266 263 255 255 256 256 254 253 253 254 256 254 253 254 256 256 256 256 255
231 234 233 232 232 228 233 237 233 237 243 251 253 250 248 224 202 189 185 193 186 164 150 164 189 197 191 182 159 161 157 141 156 162 159 164 166 168 174 176 50 25 298 274 348 24 81 124 144 153 168 190 203 206 209 203 184 170 173 191 210 233 255 261 267 269 271 268 264 264 264 264 262 260 258 257 259 258 256 256 256 258 258 258 258
231 233 231 229 229 228 234 236 235 240 245 250 250 244 229 200 195 193 193 202 189 169 160 160 167 182 187 182 169 172 168 141 136 152 162 165 158 161 177 130 58 49 265 153 62 50 68 99 125 137 146 157 171 181 186 180 147 126 119 117 119 115 99 73 350 314 293 282 277 275 271 270 270 268 267 263 262 260 259 258 258 258 258 258 259
228 230 229 226 226 229 233 234 236 240 242 250 248 236 219 199 194 197 201 211 192 175 176 170 167 174 182 186 183 181 175 157 140 147 158 161 160 173 178 114 71 73 144 126 57 47 63 76 95 125 142 148 155 158 151 142 131 119 107 99 110 118 124 7 6 358 346 334 321 308 293 286 279 275 272 268 265 264 263 263 262 260 259 259 259
225 227 227 223 223 228 234 234 236 240 244 251 244 229 219 206 201 200 200 212 206 189 191 191 183 178 181 191 195 188 179 176 167 158 162 167 174 186 183 171 175 164 160 139 16 37 78 71 50 37 37 103 134 149 144 110 67 26 5 345 319 297 273 264 273 289 303 306 302 298 291 290 289 285 280 273 270 268 266 266 264 263 262 261 260
224 224 225 223 222 227 234 235 236 242 250 248 235 224 221 215 210 203 197 209 219 211 208 214 212 200 190 186 189 188 184 190 193 180 176 176 179 190 191 185 190 190 187 200 357 45 80 37 26 10 351 2 55 100 73 43 40 23 7 360 343 319 293 275 268 269 278 284 287 287 281 277 276 276 277 276 275 273 273 270 268 266 265 263 262
223 223 224 225 226 230 234 235 238 247 248 239 229 225 225 221 215 206 202 208 216 218 220 225 227 222 207 187 182 185 188 194 197 193 189 181 180 194 198 192 194 197 204 215 217 211 247 334 355 349 334 332 342 344 346 9 18 8 5 13 10 347 311 293 287 280 277 277 278 280 280 276 272 270 270 270 272 272 274 274 273 272 270 267 266
220 221 224 227 230 232 234 236 240 243 238 231 229 227 226 221 210 205 207 210 213 219 226 230 227 222 213 199 191 193 192 191 192 192 191 186 181 187 195 198 199 201 208 219 228 229 238 300 330 331 323 320 324 329 333 341 350 350 353 1 3 356 334 307 300 296 291 286 282 279 279 280 278 277 273 271 271 271 272 274 275 276 275 274 273
220 221 224 226 229 233 234 236 239 240 235 231 231 229 225 219 210 206 210 213 215 220 226 230 230 225 220 216 209 207 203 196 195 194 192 192 185 174 181 195 202 210 215 215 227 246 260 289 312 317 316 314 311 315 320 325 331 333 337 342 342 344 339 320 305 302 301 299 296 289 283 285 288 289 286 282 279 277 277 277 278 279 279 279 278
223 225 226 226 227 229 232 235 237 239 236 233 232 227 220 216 212 210 212 215 218 222 224 228 231 233 231 231 223 212 209 207 204 199 197 199 195 182 179 186 198 208 204 203 221 251 270 284 300 305 307 305 301 303 307 313 318 318 321 329 330 331 332 325 310 305 305 303 301 297 290 288 287 288 287 286 285 284 283 283 283 283 283 284 283
222 224 226 227 228 228 231 235 238 240 235 233 232 225 220 215 209 209 211 214 220 224 225 226 230 236 235 232 225 210 206 211 211 208 208 209 209 206 203 206 210 214 209 210 225 246 258 270 281 285 287 288 288 290 293 299 305 304 308 316 320 323 327 322 310 303 303 301 299 296 292 287 283 281 280 281 282 282 282 282 282 282 282 284 284
223 224 224 227 228 228 232 236 240 241 232 231 231 226 224 218 207 205 208 212 219 223 224 224 225 232 232 226 221 212 207 213 216 216 219 219 222 225 227 230 230 228 227 231 241 249 253 255 256 259 265 270 275 279 282 285 288 292 298 305 312 317 318 314 306 301 299 297 293 289 285 282 280 277 275 275 277 278 280 280 279 279 279 281 282
227 228 227 228 229 230 232 235 238 238 231 231 230 225 224 221 209 206 207 208 215 218 220 220 220 225 229 224 221 217 214 216 217 220 227 230 231 232 234 236 237 235 236 240 246 252 256 254 248 247 252 258 266 272 275 277 279 284 290 299 307 311 311 308 302 299 297 295 292 288 285 282 279 277 275 274 275 277 280 281 281 280 278 278 280
230 230 229 231 233 233 233 233 234 236 233 233 231 225 223 223 216 213 211 209 212 214 216 219 219 221 226 224 221 221 221 223 223 223 231 239 242 242 239 236 240 244 244 244 245 248 253 253 250 246 247 254 263 268 271 271 272 277 286 296 303 305 306 305 301 300 299 298 296 293 289 286 283 282 280 279 280 280 280 280 281 282 283 282 282
230 231 230 232 235 235 234 232 232 234 233 233 233 228 223 224 223 221 220 218 217 216 216 220 222 221 224 224 222 222 225 230 232 233 240 246 247 244 239 237 241 246 248 249 248 247 250 252 252 249 251 258 265 268 268 265 267 275 285 293 298 301 307 307 305 307 308 308 306 300 292 288 286 286 285 286 287 288 287 286 286 286 286 286 285
230 230 231 233 234 235 234 231 231 234 234 232 232 230 225 224 226 227 227 227 227 223 220 222 223 222 222 223 225 225 227 231 234 237 242 244 241 240 240 242 244 247 250 255 258 256 249 248 250 254 259 262 263 265 264 264 271 280 287 291 294 299 305 305 303 306 312 318 320 312 300 290 286 285 285 289 294 299 301 301 298 293 289 287 287
229 230 231 232 233 233 232 230 230 233 234 231 230 229 226 224 225 227 228 229 231 230 226 225 225 225 223 223 226 227 226 228 232 235 238 239 241 244 246 248 250 250 250 255 263 263 255 253 253 256 263 265 262 263 265 270 277 281 285 288 292 297 300 298 296 299 306 315 321 320 310 295 288 287 289 294 301 307 310 310 307 302 296 292 291
229 230 231 231 231 231 231 230 230 232 233 230 230 229 226 224 224 225 227 230 232 232 229 228 227 226 226 225 227 226 223 225 229 234 237 241 245 249 250 251 250 249 249 251 260 267 267 267 268 268 267 266 263 263 268 273 276 279 282 287 291 294 295 294 295 298 302 306 310 314 312 304 299 296 295 298 302 305 308 311 311 308 303 298 296
231 231 232 231 231 231 231 231 231 232 233 232 232 231 228 226 224 225 226 229 232 232 229 228 227 226 227 227 229 229 227 226 226 229 233 237 242 244 245 245 245 247 251 253 262 272 277 272 274 277 273 269 268 268 272 276 277 279 282 284 288 290 292 294 295 296 296 296 299 303 305 304 303 301 298 295 294 293 295 299 303 306 304 300 298
232 233 233 232 231 230 231 232 232 233 234 234 234 233 232 229 226 225 225 226 229 230 229 228 227 225 226 228 231 232 233 232 229 228 231 234 237 240 241 245 250 254 257 260 266 274 281 283 282 282 279 277 278 278 281 284 286 286 283 283 284 285 288 291 293 293 292 290 290 293 297 299 301 301 297 292 288 286 286 289 293 296 297 296 294
232 233 234 234 232 231 232 233 233 233 233 234 234 235 235 234 231 228 225 224 227 229 229 229 227 226 226 227 229 232 234 235 232 232 235 238 242 244 245 250 259 262 263 265 268 273 282 290 290 288 287 287 287 286 287 287 288 289 288 288 285 282 283 286 288 291 291 290 288 288 291 294 297 296 292 287 286 285 285 286 288 290 292 292 291
233 233 234 234 234 233 233 234 233 233 234 235 235 235 236 238 237 233 229 226 226 228 231 232 231 230 229 228 229 232 232 231 232 235 239 242 246 249 251 256 263 267 267 268 273 278 284 289 292 294 295 293 290 289 286 284 284 285 287 289 288 287 285 284 284 287 291 293 291 289 290 292 293 293 290 287 286 286 285 284 285 287 288 288 288
234 234 234 234 234 233 234 234 235 235 236 237 238 237 238 239 239 238 233 229 228 230 231 233 234 233 232 231 232 232 232 231 231 236 241 245 249 252 255 260 267 273 273 273 277 281 284 287 291 294 294 292 291 291 289 288 287 286 286 288 290 293 294 292 289 290 292 293 293 292 292 292 292 291 290 289 288 288 287 285 283 283 283 283 283
234 235 235 235 236 236 235 235 236 238 239 241 241 240 240 240 241 240 237 232 231 233 234 234 235 235 235 233 233 234 236 234 233 239 246 249 251 252 256 264 274 280 280 278 279 281 284 288 293 294 294 293 293 293 293 293 291 289 288 289 292 296 298 297 295 295 296 295 294 293 293 293 291 288 287 290 291 292 293 292 290 288 286 285 284
234 235 236 237 238 238 238 237 238 240 242 243 244 243 241 240 242 242 239 233 232 236 238 236 235 236 236 233 231 233 236 237 238 242 247 250 252 257 264 273 279 282 284 286 286 286 288 293 296 298 298 298 296 295 296 295 291 289 291 294 296 299 298 295 294 296 297 295 295 295 295 294 293 290 290 292 292 294 296 296 295 294 293 292 291
234 236 237 238 239 239 239 240 240 242 244 245 245 244 242 240 240 242 240 235 234 238 242 240 238 236 234 232 230 230 235 239 242 243 246 250 257 265 271 275 278 281 287 291 291 290 292 295 297 299 301 299 298 298 298 296 292 293 296 297 296 298 298 296 294 295 294 293 294 294 294 294 295 295 294 293 292 293 294 294 295 295 295 295 294
235 236 237 239 240 240 241 241 241 243 245 246 247 246 244 242 240 241 241 236 235 242 246 245 243 239 235 232 230 231 236 240 241 242 245 252 261 268 272 275 280 285 288 288 288 289 292 294 297 300 300 299 299 299 299 296 295 297 299 298 295 296 298 296 295 295 294 292 292 292 292 295 296 294 292 291 291 291 292 293 295 295 294 293 293
236 236 236 238 239 241 242 242 242 244 246 249 249 248 247 245 242 242 242 237 235 241 244 244 245 244 240 235 231 232 237 238 239 241 246 252 259 264 270 276 281 284 285 286 287 289 292 294 297 300 299 298 299 300 299 300 301 301 299 297 296 297 297 295 295 297 295 292 289 288 289 292 292 291 290 289 289 290 293 294 295 295 294 293 291
236 236 236 237 239 240 241 242 244 245 248 251 251 250 247 243 241 244 245 239 235 240 243 243 245 247 246 240 234 234 238 238 238 240 242 246 251 259 266 269 271 275 278 280 282 286 289 291 294 296 295 296 299 301 302 303 302 300 298 296 296 296 295 292 292 293 293 290 286 283 285 287 289 289 289 288 289 292 294 294 294 293 292 289 286
236 236 236 238 240 241 241 243 245 247 251 253 253 251 244 236 238 246 246 238 236 241 246 248 249 249 247 243 237 236 238 238 237 237 239 245 252 259 261 261 263 268 271 275 278 281 285 288 291 292 293 295 299 301 301 301 301 299 297 296 296 295 292 288 287 288 290 288 285 283 284 286 287 288 288 289 291 293 293 292 290 288 285 280 277
235 235 237 238 240 241 242 244 246 249 252 254 253 250 240 235 240 247 244 236 234 240 248 253 254 251 246 241 237 236 236 235 235 237 240 246 254 260 262 262 265 268 271 275 278 278 282 286 289 290 293 297 298 298 299 300 300 298 296 295 296 294 290 289 289 289 289 287 285 286 286 286 287 288 289 291 294 294 292 289 286 285 282 278 274
233 234 236 238 240 242 243 245 247 250 253 255 253 247 241 242 246 244 243 239 233 235 246 253 256 254 247 241 237 236 234 232 233 239 243 245 251 259 263 265 267 266 265 268 270 275 282 286 287 291 294 296 296 296 298 299 297 296 297 298 297 293 291 291 292 291 290 288 290 291 290 290 291 292 292 295 296 294 292 290 289 289 287 283 279
233 235 237 238 240 242 244 246 247 250 253 254 251 246 245 249 247 238 241 243 234 234 243 250 255 255 248 243 241 237 233 230 233 241 245 246 250 256 260 266 268 261 256 260 269 278 282 282 285 291 295 296 297 298 299 298 295 295 296 296 293 291 292 292 292 292 290 289 291 293 292 294 297 295 294 296 296 294 293 292 292 290 287 284 283
233 235 236 238 240 241 243 245 247 250 253 252 250 247 248 252 245 236 241 246 237 234 239 246 253 254 248 245 242 236 231 230 235 242 244 246 252 257 262 269 267 254 249 258 270 277 279 282 288 294 296 297 298 298 297 295 294 294 293 291 291 293 294 293 292 292 291 290 291 292 294 298 301 298 296 296 296 295 294 292 290 288 284 282 281
233 235 236 237 239 240 242 244 246 248 251 251 249 249 249 250 247 244 248 248 240 236 238 242 248 251 248 247 242 235 231 231 236 240 243 249 257 262 266 269 261 249 249 260 270 275 281 288 294 296 296 297 296 295 296 297 297 297 294 292 294 295 294 292 293 294 294 294 294 294 296 299 300 299 298 298 296 295 293 291 290 288 286 285 285
233 235 236 237 238 239 241 243 245 248 250 251 251 250 249 250 251 254 255 249 240 238 240 242 244 246 246 247 244 237 234 235 240 246 249 252 258 263 267 265 257 254 261 269 275 281 287 293 295 296 296 296 294 294 296 297 297 295 292 291 293 293 290 290 294 297 298 298 297 296 295 296 299 300 302 302 300 297 295 295 296 295 295 296 296
234 235 236 236 237 239 240 242 245 247 248 249 250 250 249 251 254 254 253 248 242 241 243 244 245 244 243 245 244 239 235 239 248 255 254 252 255 259 261 260 260 265 273 278 282 287 291 294 296 297 298 295 293 293 295 295 293 289 286 285 287 288 290 292 296 300 300 298 299 299 299 300 302 303 305 305 303 301 301 301 301 301 302 303 302